VK8HF Weather Reports


time (UTC)temp
F
wind
direction
speed
knots
gust
knots
rain 1hr
in
rain 24hr
in
rain mn
in
humidity
%
barometer
mb
20260505191507 75 229 0.0 1.7 0.00 0.00 0.00 80 1010.8
20260505190006 75 224 0.0 0.9 0.00 0.00 0.00 80 1010.8
20260505184506 75 213 0.0 1.7 0.00 0.00 0.00 80 1010.8
20260505183005 75 248 0.0 0.9 0.00 0.00 0.00 80 1010.9
20260505181503 76 248 0.0 0.0 0.00 0.00 0.00 80 1010.9
20260505180001 76 248 0.0 0.0 0.00 0.00 0.00 80 1011.1
20260505174600 77 248 0.0 0.0 0.00 0.00 0.00 79 1011.1
20260505173002 77 231 0.0 1.7 0.00 0.00 0.00 79 1011.1
20260505171502 77 223 0.0 0.0 0.00 0.00 0.00 79 1011.2
20260505170003 77 278 0.0 0.0 0.00 0.00 0.00 79 1011.3
20260505164601 77 278 0.0 0.0 0.00 0.00 0.00 79 1011.4
20260505163058 78 279 0.0 2.6 0.00 0.00 0.00 79 1011.3
20260505161621 78 276 0.0 3.5 0.00 0.00 0.00 78 1011.4
20260505153100 79 274 0.0 1.7 0.00 0.00 0.00 72 1011.7
20260505151618 79 275 0.0 3.5 0.00 0.00 0.00 72 1011.8
20260505124508 78 104 0.0 0.0 0.00 0.00 0.00 76 1011.6
20260505123051 78 104 0.0 0.0 0.00 0.00 0.00 77 1011.7
20260505121550 79 104 0.0 0.0 0.00 0.00 0.00 79 1011.7
20260505120105 79 104 0.0 0.0 0.00 0.00 0.00 80 1011.7
20260505114547 79 104 0.0 0.0 0.00 0.00 0.00 80 1011.5
20260505113048 80 104 0.0 0.0 0.00 0.00 0.00 79 1011.5
20260505111545 80 104 0.0 0.0 0.00 0.00 0.00 79 1011.4
20260505101541 81 104 0.0 0.9 0.00 0.00 0.00 77 1010.8
20260505100042 82 161 0.0 0.0 0.00 0.00 0.00 76 1010.7
20260505094540 82 191 0.0 1.7 0.00 0.00 0.00 75 1010.6
20260505093042 83 184 0.0 0.9 0.00 0.00 0.00 74 1010.4
20260505091539 83 199 0.0 3.5 0.00 0.00 0.00 73 1010.3
20260505090045 84 195 0.0 2.6 0.00 0.00 0.00 72 1010.2
20260505084538 86 111 0.0 2.6 0.00 0.00 0.00 69 1010.2
20260505083037 87 163 0.0 4.3 0.00 0.00 0.00 66 1010.0
20260505081540 88 149 0.0 4.3 0.00 0.00 0.00 65 1009.9
20260505080038 90 121 0.0 2.6 0.00 0.00 0.00 52 1009.7
20260505074535 91 200 0.0 4.3 0.00 0.00 0.00 50 1009.6
20260505073052 91 189 0.9 11.3 0.00 0.00 0.00 49 1009.5
20260505071535 91 280 0.0 4.3 0.00 0.00 0.00 51 1009.5
20260505070035 90 235 1.7 7.8 0.00 0.00 0.00 51 1009.3
20260505064540 92 226 3.5 7.0 0.00 0.00 0.00 51 1009.1
20260505063038 92 210 1.7 7.0 0.00 0.00 0.00 50 1009.1
20260505061548 92 239 0.0 7.0 0.00 0.00 0.00 50 1009.1
20260505060036 92 216 3.5 9.6 0.00 0.00 0.00 49 1009.1
20260505054557 92 247 1.7 5.2 0.00 0.00 0.00 50 1009.3
20260505053032 92 187 2.6 7.0 0.00 0.00 0.00 48 1009.2
20260505051526 92 202 1.7 8.7 0.00 0.00 0.00 52 1009.4
20260505041520 90 188 4.3 8.7 0.00 0.00 0.00 52 1010.0
20260505040019 90 215 6.1 11.3 0.00 0.00 0.00 52 1010.3
20260505034516 91 241 2.6 9.6 0.00 0.00 0.00 53 1010.5
20260505033014 91 206 0.0 7.0 0.00 0.00 0.00 53 1010.7
20260505031529 90 208 1.7 7.0 0.00 0.00 0.00 55 1010.9
20260505030009 90 232 3.5 9.6 0.00 0.00 0.00 54 1011.2
20260505024510 89 211 1.7 7.8 0.00 0.00 0.00 57 1011.3
20260505023006 89 236 0.9 7.0 0.00 0.00 0.00 58 1011.5
20260505021502 89 207 2.6 10.4 0.00 0.00 0.00 61 1011.9
20260505020058 87 232 2.6 7.8 0.00 0.00 0.00 62 1012.2
20260505014605 88 238 2.6 8.7 0.00 0.00 0.00 61 1012.5
20260505013107 88 178 1.7 7.0 0.00 0.00 0.00 62 1012.6
20260505011552 87 192 1.7 7.8 0.00 0.00 0.00 65 1012.7
20260505010050 87 249 1.7 7.0 0.00 0.00 0.00 68 1012.8
20260505004554 87 183 0.9 11.3 0.00 0.00 0.00 71 1012.8
20260505003047 85 240 0.9 7.0 0.00 0.00 0.00 72 1012.8
20260505001550 85 180 0.9 5.2 0.00 0.00 0.00 74 1012.9
20260505000100 85 218 0.0 2.6 0.00 0.00 0.00 76 1012.9
20260504234541 84 26 0.0 3.5 0.00 0.00 0.00 78 1012.8
20260504233051 83 247 0.9 4.3 0.00 0.00 0.00 78 1012.7
20260504231546 83 249 0.0 3.5 0.00 0.00 0.00 78 1012.8
20260504230100 82 225 0.0 1.7 0.00 0.00 0.00 76 1012.9
20260504224540 81 221 0.9 3.5 0.00 0.00 0.00 70 1012.8
20260504223007 79 213 0.0 3.5 0.00 0.00 0.00 18 1012.6
20260504221509 78 56 0.0 0.0 0.00 0.00 0.00 7 1012.5